Location: Newark
(39.0622°N, 106.5590°E)
Time: 21:01:52
(UTC+00:00)

Courier 1B - Pass Details

Date: 02 February 2020
Orbit: 962 x 1209 km, 28.3° (Epoch: 27 February)

Event Time Altitude Azimuth Distance (km) Brightness Sun altitude
Rises 17:49:29 0° 248° (WSW) 3,665 - -65.9°
Reaches altitude 10° 17:52:20 10° 238° (WSW) 2,740 - -65.7°
Maximum altitude 17:58:10 33° 177° (S) 1,634 - -65.1°
Drops below altitude 10° 18:04:18 10° 116° (ESE) 2,881 - -64.5°
Sets 18:07:23 0° 107° (ESE) 3,879 - -64.2°
